[[{"header":{"parameterUnit":"m.s-1","parameterCategory":1,"la1":30.2991,"la2":30.254,"lo1":-89.0895,"lo2":-89.0444,"dy":0.0017,"dx":0.0017,"nx":28,"ny":28,"refTime":"2024-06-14T09:00:00:Z","depth":0,"parameterNumber":2,"parameterNumberName":"U-component_of_WINDS"},"data":[0,0,0,0,0,0,0,0,0,0,0,0,0,0,0,0,0,0,0,0,0,0,0,0,0,0,0,0,0,0,0,0,0,0,0,0,0,0,0,0,0,0,0,0,0,0,0,0,0,0,0,0,0,0,0,0,0,0,-2.3289,-2.3288,0,-2.3257,-2.3257,-2.3257,-2.3204,-2.3203,-2.3202,-2.3201,-2.3167,-2.3167,-2.3167,0,0,0,0,0,0,0,0,0,0,0,0,0,-2.3305,-2.3305,-2.3289,-2.3288,-2.3288,-2.3257,-2.3257,-2.3256,-2.3204,-2.3203,-2.3201,-2.32,-2.3167,-2.3167,-2.3167,0,0,0,0,0,0,0,0,0,0,0,0,0,-2.3288,-2.3305,-2.3289,-2.3258,-2.3255,-2.3257,-2.3257,-2.3256,-2.3204,-2.3202,-2.3201,-2.32,-2.3167,-2.3167,-2.3167,-2.3197,0,0,-2.3167,-2.3167,0,0,0,0,0,0,0,0,-2.3289,-2.3287,-2.3263,-2.326,-2.3257,-2.3233,-2.325,-2.3236,-2.3204,-2.3223,-2.3201,-2.3199,-2.319,-2.3188,-2.3186,-2.3195,-2.3194,-2.3167,-2.3167,-2.3167,-2.3167,0,0,0,0,0,0,0,-2.329,-2.3288,-2.3276,-2.3263,-2.3259,-2.3246,-2.3242,-2.3247,-2.3215,-2.3222,-2.3218,-2.3215,-2.3188,-2.3186,-2.3184,-2.3193,-2.3167,-2.3167,-2.3167,-2.3167,-2.323,-2.3231,0,0,0,0,0,0,-2.3296,-2.329,-2.3277,-2.3275,-2.327,-2.3247,-2.3243,-2.3242,-2.3215,-2.321,-2.3216,-2.3212,-2.3186,-2.3184,-2.3183,-2.3218,-2.3167,-2.3168,-2.3168,-2.3228,-2.323,-2.3232,0,0,0,0,0,0,-2.3296,-2.3295,-2.3278,-2.3282,-2.3278,-2.3248,-2.3248,-2.3242,-2.3239,-2.3211,-2.3205,-2.3219,-2.3185,-2.3183,-2.3195,-2.3216,-2.3168,-2.3168,-2.3226,-2.3229,-2.3231,-2.3286,0,0,0,0,0,0,-2.3297,-2.3296,-2.3306,-2.3282,-2.3278,-2.329,-2.3249,-2.3243,-2.324,-2.3235,-2.3212,-2.3207,-2.3184,-2.3195,-2.3195,-2.3215,-2.3168,-2.3224,-2.3227,-2.323,-2.3283,-2.329,-2.3297,0,0,0,0,0,-2.3298,-2.3322,-2.3307,-2.3306,-2.3291,-2.3292,-2.3289,-2.3262,-2.3242,-2.3252,-2.3235,-2.3208,-2.3214,-2.3197,-2.3196,-2.3216,-2.3222,-2.3226,-2.323,-2.3279,-2.3289,-2.3297,0,0,0,0,0,0,-2.3348,-2.3318,-2.3301,-2.3318,-2.3308,-2.3283,-2.3295,-2.3273,-2.3268,-2.3263,-2.323,-2.3225,-2.3242,-2.323,-2.3212,-2.3245,-2.3214,-2.3218,-2.3252,-2.3261,-2.3268,-2.327,-2.3168,0,0,0,0,0,-2.3361,-2.3364,-2.3338,-2.3356,-2.3352,-2.3325,-2.3324,-2.3304,-2.3292,-2.3287,-2.327,-2.326,-2.3259,-2.326,-2.3257,-2.3281,-2.3277,-2.3295,-2.3303,-2.3309,-2.3312,-2.3327,-2.3335,-2.3244,-2.3244,-2.3244,0,0,-2.3388,-2.3372,-2.3376,-2.3366,-2.3355,-2.336,-2.3321,-2.3327,-2.333,-2.3288,-2.3298,-2.3286,-2.3272,-2.3291,-2.3298,-2.3282,-2.3337,-2.3314,-2.3319,-2.3319,-2.3331,-2.334,-2.3348,-2.3246,-2.3246,-2.3245,0,0,-2.3439,-2.3427,-2.3441,-2.3433,-2.3419,-2.3401,-2.3405,-2.3384,-2.3375,-2.3385,-2.3354,-2.3358,-2.3358,-2.335,-2.3346,-2.3399,-2.3375,-2.34,-2.3437,-2.3452,-2.3459,-2.3465,-2.3485,-2.3493,-2.3403,-2.3403,-2.3403,0,-2.3474,-2.3479,-2.3452,-2.346,-2.3458,-2.3422,-2.3437,-2.343,-2.3416,-2.3415,-2.3397,-2.3398,-2.3386,-2.3404,-2.3417,-2.3415,-2.3419,-2.3401,-2.346,-2.3466,-2.3472,-2.3491,-2.3498,-2.3406,-2.3406,-2.3406,-2.3405,0,-2.3524,-2.3529,-2.3542,-2.3531,-2.353,-2.3542,-2.3517,-2.3519,-2.3501,-2.3486,-2.3499,-2.3484,-2.3479,-2.3482,-2.3463,-2.3498,-2.3489,-2.3466,-2.3434,-2.3484,-2.3501,-2.3508,-2.3411,-2.341,-2.3409,-2.3408,0,0,-2.3602,-2.3579,-2.3584,-2.358,-2.3564,-2.3567,-2.3579,-2.3575,-2.3579,-2.3571,-2.3581,-2.3584,-2.3564,-2.356,-2.354,-2.3553,-2.3598,-2.3529,-2.3528,-2.3543,-2.3638,-2.3655,-2.3664,-2.3583,-2.3584,-2.3585,-2.3639,0,-2.365,-2.3668,-2.3646,-2.3669,-2.3675,-2.3643,-2.3653,-2.3645,-2.3632,-2.3635,-2.3621,-2.3624,-2.3597,-2.3594,-2.3605,-2.359,-2.3617,-2.3586,-2.3592,-2.3593,-2.3597,-2.3672,-2.369,-2.3741,-2.3646,-2.3647,-2.3648,0,-2.3708,-2.3705,-2.3729,-2.3715,-2.3716,-2.3726,-2.3723,-2.3726,-2.3717,-2.3707,-2.3705,-2.3682,-2.3694,-2.3664,-2.3681,-2.3661,-2.3662,-2.3656,-2.3657,-2.3656,-2.3623,-2.3674,-2.3757,-2.3765,-2.3658,-2.3657,-2.3656,0,-2.3764,-2.3767,-2.3782,-2.3779,-2.3762,-2.377,-2.3763,-2.3753,-2.3754,-2.3752,-2.3752,-2.3751,-2.375,-2.3751,-2.373,-2.371,-2.375,-2.3717,-2.3743,-2.3743,-2.3751,-2.3751,-2.3836,-2.3753,-2.3753,-2.3752,-2.3752,0,-2.382,-2.3836,-2.3808,-2.3817,-2.3836,-2.381,-2.383,-2.382,-2.3812,-2.382,-2.3792,-2.38,-2.3772,-2.3777,-2.3761,-2.3779,-2.3778,-2.3771,-2.3767,-2.3774,-2.3775,-2.3774,-2.377,-2.3755,-2.3754,-2.3754,-2.3753,0,-2.3885,-2.3866,-2.3882,-2.3865,-2.3862,-2.3876,-2.3863,-2.3872,-2.3858,-2.3869,-2.387,-2.385,-2.3855,-2.3835,-2.3836,-2.3826,-2.3852,-2.3841,-2.3855,-2.3852,-2.3879,-2.3877,-2.3966,-2.3977,-2.3887,-2.3888,-2.3888,0,-2.3922,-2.3934,-2.392,-2.3924,-2.3919,-2.3925,-2.3927,-2.3903,-2.3906,-2.3899,-2.3909,-2.3913,-2.3915,-2.3926,-2.3911,-2.3913,-2.3903,-2.3934,-2.3903,-2.391,-2.3904,-2.3904,-2.3906,-2.394,-2.3941,-2.3942,-2.3943,0,-2.3989,-2.398,-2.3983,-2.3984,-2.3987,-2.3986,-2.3984,-2.3989,-2.3964,-2.3969,-2.3975,-2.3977,-2.398,-2.3985,-2.3985,-2.3978,-2.3957,-2.3953,-2.3959,-2.3966,-2.3974,-2.3972,-2.3873,-2.3951,-2.395,-2.395,-2.3949,-2.3949,-2.4041,-2.4052,-2.4045,-2.405,-2.4046,-2.4046,-2.4054,-2.4043,-2.4048,-2.4049,-2.4036,-2.4046,-2.404,-2.4037,-2.4034,-2.4042,-2.4027,-2.4036,-2.4038,-2.404,-2.4046,-2.3974,-2.4041,-2.4041,-2.4041,-2.4041,-2.4041,0,-2.4108,-2.4103,-2.4108,-2.4107,-2.4112,-2.4093,-2.409,-2.4095,-2.4104,-2.4101,-2.4104,-2.4113,-2.4118,-2.4106,-2.4109,-2.4119,-2.4109,-2.412,-2.4119,-2.4119,-2.4058,-2.4052,-2.4128,-2.4128,-2.4128,-2.4128,-2.4128,-2.4128,-2.4143,-2.4161,-2.4152,-2.4169,-2.4163,-2.4173,-2.4173,-2.4173,-2.4171,-2.4182,-2.4187,-2.4179,-2.4172,-2.4176,-2.4181,-2.4177,-2.418,-2.4195,-2.4188,-2.4131,-2.4123,-2.4114,-2.4109,-2.4196,-2.4196,-2.4249,-2.4249,-2.425]},{"header":{"parameterUnit":"m.s-1","parameterCategory":1,"la1":30.2991,"la2":30.254,"lo1":-89.0895,"lo2":-89.0444,"dy":0.0017,"dx":0.0017,"nx":28,"ny":28,"refTime":"2024-06-14T09:00:00:Z","depth":0,"parameterNumber":3,"parameterNumberName":"V-component_of_WINDS"},"data":[0,0,0,0,0,0,0,0,0,0,0,0,0,0,0,0,0,0,0,0,0,0,0,0,0,0,0,0,0,0,0,0,0,0,0,0,0,0,0,0,0,0,0,0,0,0,0,0,0,0,0,0,0,0,0,0,0,0,2.5003,2.5004,0,2.5064,2.5065,2.5066,2.5162,2.5164,2.5166,2.5168,2.5225,2.5225,2.5224,0,0,0,0,0,0,0,0,0,0,0,0,0,2.4963,2.4964,2.5003,2.5004,2.5004,2.5064,2.5065,2.5066,2.5162,2.5164,2.5166,2.5168,2.5225,2.5225,2.5224,0,0,0,0,0,0,0,0,0,0,0,0,0,2.4998,2.4964,2.5003,2.506,2.5066,2.5064,2.5065,2.5066,2.5162,2.5164,2.5167,2.5169,2.5225,2.5225,2.5224,2.517,0,0,2.5224,2.5224,0,0,0,0,0,0,0,0,2.4996,2.4999,2.5051,2.5056,2.5062,2.5109,2.5072,2.5101,2.5161,2.5125,2.5168,2.5171,2.5183,2.5187,2.5192,2.5173,2.5175,2.5224,2.5224,2.5224,2.5224,0,0,0,0,0,0,0,2.4993,2.4997,2.5027,2.5051,2.5058,2.508,2.5088,2.5078,2.5138,2.5128,2.5135,2.5142,2.5187,2.5192,2.5194,2.5176,2.5224,2.5224,2.5224,2.5223,2.5113,2.511,0,0,0,0,0,0,2.4983,2.4995,2.5025,2.5029,2.5035,2.5079,2.5088,2.5091,2.5139,2.5149,2.5139,2.5146,2.5191,2.5195,2.5197,2.5134,2.5224,2.5223,2.5223,2.5116,2.5112,2.5109,0,0,0,0,0,0,2.4982,2.4985,2.5023,2.5014,2.502,2.5077,2.508,2.5091,2.5096,2.5147,2.5158,2.5134,2.5194,2.5197,2.5176,2.5138,2.5223,2.5223,2.5119,2.5115,2.5111,2.501,0,0,0,0,0,0,2.4981,2.4984,2.4966,2.5013,2.502,2.5002,2.5077,2.509,2.5096,2.5105,2.5145,2.5154,2.5196,2.5176,2.5176,2.5139,2.5223,2.5123,2.5117,2.5112,2.5017,2.5003,2.4991,0,0,0,0,0,2.4979,2.4934,2.4964,2.4967,2.4999,2.5,2.5004,2.5055,2.5093,2.5073,2.5106,2.5153,2.5143,2.5173,2.5174,2.5136,2.5125,2.5119,2.5113,2.5023,2.5006,2.4991,0,0,0,0,0,0,2.4879,2.4941,2.4975,2.4945,2.4966,2.5016,2.4993,2.5035,2.5045,2.5053,2.5114,2.5122,2.5092,2.5113,2.5145,2.5085,2.5141,2.5135,2.5073,2.5057,2.5044,2.5038,2.5223,0,0,0,0,0,2.4854,2.4852,2.4906,2.4873,2.4883,2.4936,2.4938,2.4976,2.5,2.5009,2.504,2.506,2.5062,2.5061,2.5065,2.5022,2.503,2.4996,2.4983,2.4972,2.4965,2.4941,2.4926,2.5089,2.5089,2.5089,0,0,2.4801,2.4835,2.4829,2.4854,2.4875,2.4869,2.4943,2.4934,2.4929,2.5007,2.4989,2.5012,2.5039,2.5005,2.4992,2.5021,2.4922,2.4964,2.4955,2.4954,2.4933,2.4917,2.4903,2.5084,2.5085,2.5086,0,0,2.4701,2.4728,2.4703,2.4723,2.4754,2.479,2.4784,2.4828,2.4846,2.483,2.4888,2.4882,2.4884,2.49,2.4908,2.4813,2.4855,2.4813,2.4743,2.4719,2.4706,2.4695,2.4658,2.4645,2.4806,2.4806,2.4806,0,2.463,2.4626,2.4684,2.4671,2.4679,2.4752,2.4725,2.4741,2.4771,2.4774,2.4807,2.481,2.4833,2.4803,2.478,2.4785,2.4778,2.4807,2.4704,2.4693,2.4684,2.4649,2.4636,2.48,2.4801,2.4802,2.4802,0,2.4536,2.4531,2.4507,2.4536,2.4542,2.4522,2.4575,2.4574,2.4611,2.4642,2.4623,2.4653,2.4664,2.466,2.4696,2.4635,2.4651,2.4693,2.475,2.4661,2.463,2.4618,2.4792,2.4794,2.4796,2.4797,0,0,2.4372,2.4435,2.4424,2.4438,2.4478,2.4475,2.4458,2.447,2.4466,2.4485,2.4469,2.4469,2.4508,2.4517,2.4555,2.4534,2.4454,2.4579,2.458,2.4552,2.4385,2.4351,2.4335,2.4484,2.4481,2.448,2.4382,0,2.4278,2.4254,2.4306,2.4267,2.4262,2.4331,2.4316,2.4338,2.4367,2.4365,2.4397,2.4394,2.4448,2.4453,2.4436,2.4467,2.4421,2.4476,2.4467,2.4466,2.4455,2.4319,2.4283,2.4189,2.437,2.4368,2.4367,0,2.4164,2.4178,2.414,2.4182,2.4181,2.4167,2.4181,2.418,2.4205,2.4228,2.4238,2.4283,2.4267,2.4324,2.43,2.4336,2.4336,2.4351,2.4348,2.4347,2.4408,2.431,2.4161,2.4145,2.4349,2.435,2.4351,0,2.4045,2.4055,2.4033,2.4042,2.4091,2.4078,2.4098,2.4126,2.413,2.4142,2.4144,2.4154,2.4158,2.4163,2.4209,2.4247,2.4179,2.424,2.4194,2.4192,2.4174,2.4174,2.4019,2.4179,2.4179,2.4179,2.418,0,2.3932,2.3905,2.3979,2.3965,2.3936,2.3996,2.3965,2.3991,2.4015,2.4006,2.4066,2.4056,2.4118,2.4114,2.4149,2.4123,2.4125,2.414,2.415,2.4133,2.4131,2.4131,2.4138,2.4176,2.4177,2.4177,2.4178,0,2.3793,2.3842,2.3822,2.387,2.3881,2.3857,2.3898,2.3885,2.3919,2.3906,2.3906,2.3958,2.3955,2.4002,2.4009,2.4033,2.3989,2.4012,2.3981,2.3986,2.3936,2.3939,2.3774,2.3754,2.3929,2.3928,2.3926,0,2.3716,2.3697,2.3743,2.3742,2.3759,2.3756,2.376,2.3818,2.3819,2.3846,2.383,2.3833,2.3838,2.3831,2.3867,2.3872,2.3893,2.3835,2.3894,2.3878,2.3888,2.3888,2.3885,2.3821,2.3819,2.3817,2.3816,0,2.3573,2.3599,2.3603,2.3616,2.3619,2.3631,2.3647,2.3642,2.3705,2.3703,2.3702,2.3706,2.3714,2.3714,2.3727,2.3744,2.3789,2.3798,2.3787,2.3768,2.3749,2.3755,2.3943,2.38,2.3802,2.3803,2.3804,2.3804,2.3461,2.3446,2.3477,2.3479,2.3497,2.3511,2.3501,2.3534,2.3535,2.3546,2.358,2.3572,2.3597,2.3618,2.3632,2.3625,2.3654,2.3638,2.3634,2.3628,2.3618,2.3753,2.3628,2.3629,2.3629,2.3629,2.363,0,2.3319,2.3342,2.3344,2.3364,2.3366,2.3411,2.3431,2.3428,2.3421,2.3442,2.3446,2.3443,2.3445,2.3482,2.3487,2.3474,2.3495,2.3473,2.3473,2.3476,2.3594,2.3601,2.3457,2.3457,2.3457,2.3457,2.3457,2.3457,2.3245,2.3222,2.325,2.3236,2.3259,2.3254,2.3261,2.3272,2.3288,2.3284,2.3286,2.3311,2.3337,2.3345,2.3347,2.3358,2.3355,2.3326,2.3343,2.3451,2.3468,2.3484,2.3491,2.3326,2.3326,2.3225,2.3225,2.3224]}]]